Location: Poughquag
(41.6090°N, 73.6820°W)
Time: 03:59:38
(UTC-05:00)

Transit 2A - All Passes

Search period start: 05 December 2023 00:00
Search period end: 15 December 2023 00:00
Orbit: 600 x 953 km, 66.7° (Epoch: 05 December)

Date Brightness Start Highest point End Pass type
(mag) Time Alt. Az. Time Alt. Az. Time Alt. Az.
05 Dec - 00:18:39 10° NNW 00:23:00 84° ENE 00:27:30 10° SSE night (unlit)
05 Dec - 14:57:43 10° SSW 15:02:54 69° ESE 15:07:37 10° NE daylight
05 Dec - 16:43:03 10° W 16:46:22 18° NW 16:49:32 10° N daylight
05 Dec - 23:43:48 10° NNW 23:48:04 52° ENE 23:52:25 10° SE night (unlit)
06 Dec - 01:28:12 10° WNW 01:30:41 15° WSW 01:33:14 10° SW night (unlit)
06 Dec - 14:23:04 10° S 14:28:01 44° ESE 14:32:33 10° NE daylight
06 Dec - 16:07:09 10° WSW 16:11:14 25° NW 16:15:05 10° N daylight
06 Dec - 23:09:05 10° NNW 23:13:03 34° NE 23:17:07 10° ESE night (unlit)
07 Dec - 00:52:26 10° WNW 00:55:56 24° WSW 00:59:32 10° SSW night (unlit)
07 Dec - 13:48:44 10° S 13:53:11 29° ESE 13:57:19 10° NE daylight
07 Dec - 15:31:33 10° WSW 15:36:11 35° NW 15:40:28 10° NNE daylight
07 Dec - 22:34:28 10° N 22:37:59 23° NE 22:41:33 10° ESE night (unlit)
08 Dec - 00:17:07 10° NW 00:21:08 37° WSW 00:25:18 10° S night (unlit)
08 Dec - 13:14:47 10° SSE 13:18:23 19° ESE 13:21:47 10° ENE daylight
08 Dec - 14:56:12 10° SW 15:01:10 52° WNW 15:05:45 10° NNE daylight
08 Dec - 22:00:04 10° N 22:02:51 16° NE 22:05:38 10° E night (unlit)
08 Dec - 23:41:59 10° NW 23:46:17 61° WSW 23:50:44 10° SSE night (unlit)
09 Dec - 12:41:39 10° SE 12:43:38 12° ESE 12:45:34 10° E daylight
09 Dec - 14:21:04 10° SSW 14:26:13 79° WNW 14:30:54 10° NNE daylight
09 Dec - 16:07:58 10° WNW 16:09:58 12° NW 16:11:55 10° NNW daylight
09 Dec - 21:26:09 10° NNE 21:27:38 11° NE 21:29:06 10° ENE night (unlit)
09 Dec - 23:07:01 10° NNW 23:11:23 84° ENE 23:15:54 10° SSE night (unlit)
10 Dec - 13:46:11 10° SSW 13:51:18 69° ESE 13:55:58 10° NE daylight
10 Dec - 15:31:32 10° W 15:34:45 17° NW 15:37:52 10° N daylight
10 Dec - 22:32:11 10° NNW 22:36:26 53° ENE 22:40:50 10° SE night (unlit)
11 Dec - 00:16:33 10° WNW 00:19:04 15° WSW 00:21:38 10° SW night (unlit)
11 Dec - 13:11:32 10° S 13:16:25 44° ESE 13:20:53 10° NE daylight
11 Dec - 14:55:37 10° WSW 14:59:38 24° NW 15:03:25 10° N daylight
11 Dec - 21:57:26 10° NNW 22:01:25 34° NE 22:05:31 10° ESE night (unlit)
11 Dec - 23:40:48 10° WNW 23:44:19 24° WSW 23:47:57 10° SSW night (unlit)
12 Dec - 12:37:11 10° S 12:41:34 29° ESE 12:45:39 10° NE daylight
12 Dec - 14:20:00 10° WSW 14:24:34 35° NW 14:28:48 10° NNE daylight
12 Dec - 21:22:49 10° N 21:26:21 23° NE 21:29:57 10° ESE night (unlit)
12 Dec - 23:05:28 10° NW 23:09:30 37° WSW 23:13:42 10° S night (unlit)
13 Dec - 12:03:14 10° SSE 12:06:47 19° ESE 12:10:07 10° ENE daylight
13 Dec - 13:44:38 10° SW 13:49:33 51° WNW 13:54:04 10° NNE daylight
13 Dec - 20:48:25 10° N 20:51:12 16° NE 20:54:02 10° E night (unlit)
13 Dec - 22:30:20 10° NW 22:34:39 61° WSW 22:39:08 10° SSE night (unlit)
14 Dec - 11:30:08 10° SE 11:32:01 12° ESE 11:33:51 10° E daylight
14 Dec - 13:09:30 10° SSW 13:14:36 78° WNW 13:19:14 10° NNE daylight
14 Dec - 14:56:26 10° WNW 14:58:21 12° NW 15:00:12 10° NNW daylight
14 Dec - 20:14:28 10° NNE 20:15:59 12° NE 20:17:31 10° ENE night (unlit)
14 Dec - 21:55:22 10° NNW 21:59:44 84° ENE 22:04:18 10° SSE night (unlit)
